Change the Weather History Date:

Wednesday, April 23, 2014

  Actual Average Record
Temperature  
Mean Temperature 51 °F 57 °F  
Max Temperature 61 °F 67 °F 83 °F (1985)
Min Temperature 41 °F 48 °F 24 °F (1986)
Degree Days  
Heating Degree Days 14 9  
Month to date heating degree days 201 268  
Since 1 July heating degree days 4538 4377  
Cooling Degree Days 0 1  
Month to date cooling degree days 15 21  
Year to date cooling degree days 15 25  
Growing Degree Days 1 (Base 50)    
Moisture  
Dew Point 26 °F    
Average Humidity 42    
Maximum Humidity 62    
Minimum Humidity 22    
Precipitation  
Precipitation 0.00 in 0.11 in 1.34 in (1987)
Month to date precipitation 1.60 2.51  
Year to date precipitation 7.69 11.68  
Snow  
Snow 0.00 in - - ()
Month to date snowfall 0.4  
Since 1 July snowfall 47.0  
Snow Depth 0.00 in    
Sea Level Pressure  
Sea Level Pressure 29.91 in    
Wind  
Wind Speed 10 mph (NW)    
Max Wind Speed 20 mph    
Max Gust Speed 26 mph    
Visibility 10 miles    
Events      
T = Trace of Precipitation, MM = Missing Value Source: NWS Daily Summary

Daily Weather History Graph

Daily Weather History Graph

Search for Another Location

Airport or City:

Trip Planner

Search our weather history database for the weather conditions in past years. The results will help you decide how hot, cold, wet, or windy it might be!

Date:

Astronomy

Apr. 23, 2014 Rise Set
Actual Time 6:39 AM EDT 8:07 PM EDT
Civil Twilight 6:12 AM EDT 8:34 PM EDT
Nautical Twilight 5:39 AM EDT 9:07 PM EDT
Astronomical Twilight 5:04 AM EDT 9:42 PM EDT
Moon 3:02 AM EDT (4/23) 2:21 PM EDT (4/23)
Length of Visible Light 14h 22m
Length of Day
13h 27m
Waning Crescent, 35% of the Moon is Illuminated
Apr 23
Waning Crescent
Apr 29
New
May 6
First Quarter
May 14
Full
May 21
Last Quarter

Hourly Weather History & Observations

Time (EDT) Temp. Windchill Dew Point Humidity Pressure Visibility Wind Dir Wind Speed Gust Speed Precip Events Conditions
12:52 AM 55.9 °F - 30.9 °F 39% 29.78 in 10.0 mi NW 11.5 mph 20.7 mph N/A   Clear
1:52 AM 53.1 °F - 28.0 °F 38% 29.80 in 10.0 mi NW 10.4 mph - N/A   Clear
2:52 AM 51.1 °F - 28.0 °F 41% 29.79 in 10.0 mi WNW 9.2 mph 18.4 mph N/A   Clear
3:52 AM 48.0 °F - 28.9 °F 48% 29.80 in 10.0 mi NW 10.4 mph 19.6 mph N/A   Clear
4:52 AM 46.0 °F 39.9 °F 30.0 °F 54% 29.81 in 10.0 mi NW 13.8 mph 21.9 mph N/A   Clear
6:52 AM 42.1 °F 35.7 °F 28.9 °F 60% 29.85 in 10.0 mi WNW 11.5 mph 20.7 mph N/A   Clear
7:21 AM 42.1 °F 34.5 °F 30.0 °F 62% 29.91 in 10.0 mi WNW 15.0 mph 21.9 mph N/A   Mostly Cloudy
7:52 AM 42.1 °F 34.2 °F 30.0 °F 62% 29.88 in 10.0 mi WNW 16.1 mph 26.5 mph N/A   Mostly Cloudy
8:52 AM 44.1 °F 37.4 °F 28.9 °F 55% 29.90 in 10.0 mi NW 13.8 mph 21.9 mph N/A   Mostly Cloudy
8:59 AM 44.1 °F 38.6 °F 30.0 °F 58% 29.94 in 10.0 mi WNW 10.4 mph 19.6 mph N/A   Scattered Clouds
9:52 AM 46.9 °F - 28.9 °F 50% 29.91 in 10.0 mi West 9.2 mph 17.3 mph N/A   Clear
10:52 AM 48.9 °F - 26.1 °F 41% 29.92 in 10.0 mi WNW 15.0 mph 21.9 mph N/A   Clear
11:52 AM 52.0 °F - 25.0 °F 35% 29.92 in 10.0 mi WNW 9.2 mph 18.4 mph N/A   Clear
1:52 PM 55.9 °F - 25.0 °F 30% 29.91 in 10.0 mi NW 11.5 mph 24.2 mph N/A   Clear
2:52 PM 57.9 °F - 23.0 °F 26% 29.93 in 10.0 mi WNW 8.1 mph 18.4 mph N/A   Clear
3:52 PM 60.1 °F - 21.9 °F 23% 29.93 in 10.0 mi NNW 13.8 mph 20.7 mph N/A   Clear
4:52 PM 60.1 °F - 23.0 °F 24% 29.93 in 10.0 mi WNW 12.7 mph 19.6 mph N/A   Clear
5:52 PM 60.1 °F - 21.0 °F 22% 29.94 in 10.0 mi NW 8.1 mph 17.3 mph N/A   Clear
6:52 PM 57.9 °F - 21.9 °F 25% 29.96 in 10.0 mi WNW 9.2 mph - N/A   Clear
7:52 PM 55.9 °F - 23.0 °F 28% 29.97 in 10.0 mi NW 9.2 mph 16.1 mph N/A   Clear
8:52 PM 53.1 °F - 23.0 °F 31% 30.00 in 10.0 mi NW 5.8 mph - N/A   Clear
9:52 PM 51.1 °F - 24.1 °F 35% 30.02 in 10.0 mi North 4.6 mph - N/A   Clear
10:52 PM 50.0 °F - 25.0 °F 38% 30.03 in 10.0 mi Calm Calm - N/A   Clear
11:52 PM 48.9 °F - 26.1 °F 41% 30.04 in 10.0 mi NNW 3.5 mph - N/A   Clear